User: anonymous   Login
Location: Boundary
(64.0833°N, 141.0167°W)
Time: 11:40:29
(UTC+00:00)
Language:

X-37B - Orbit

View from above orbital plane
View from above orbital plane
View from above satellite
View from above satellite

Ground track
Ground track

The orbit data is extracted from the following two-line orbital elements,

1 45606U 20029A   21128.80678567 0.00000000  00000-0  00000-0 0    08
2 45606  45.0170  80.5916 0002414 291.9410  68.0585 15.60044799    03
Epoch (UTC): 08 May 2021 19:21:46
Eccentricity: 0.0002414
inclination: 45.0170°
perigee height: 386 km
apogee height: 389 km
right ascension of ascending node: 80.5916°
argument of perigee: 291.9410°
revolutions per day: 15.60044799
mean anomaly at epoch: 68.0585°
orbit number at epoch: 0

The dashed part of the orbit path shows where the satellite is in the earth's shadow,  

DLR